Radiation Dose at Monitoring Post of Fukushima Daini Nuclear Power Station
Date,Time,MP-1(microSv/h),MP-2(microSv/h),MP-3(microSv/h),MP-4(microSv/h),MP-5(microSv/h),MP-6(microSv/h),MP-7(microSv/h),Wind Direction,Wind Velocity(m/s),Rain
2017/07/31,00:00,0.347,0.209,0.345,0.327,0.313,0.170,0.104,north-northwest,3.9,No
2017/07/31,00:10,0.345,0.211,0.351,0.325,0.318,0.171,0.105,north,3.8,No
2017/07/31,00:20,0.348,0.211,0.349,0.322,0.317,0.169,0.104,north-northwest,3.8,No
2017/07/31,00:30,0.347,0.209,0.345,0.327,0.314,0.171,0.104,north,3.7,No
2017/07/31,00:40,0.345,0.212,0.349,0.325,0.316,0.170,0.105,north,4.0,No
2017/07/31,00:50,0.348,0.211,0.349,0.323,0.317,0.170,0.104,north-northwest,3.9,No
2017/07/31,01:00,0.349,0.210,0.346,0.327,0.313,0.170,0.104,north-northwest,2.9,No
2017/07/31,01:10,0.344,0.212,0.350,0.325,0.316,0.171,0.105,north,3.8,No
2017/07/31,01:20,0.348,0.211,0.347,0.322,0.317,0.170,0.104,north,3.2,No
2017/07/31,01:30,0.347,0.210,0.347,0.328,0.314,0.172,0.106,north,3.9,No
2017/07/31,01:40,0.345,0.211,0.350,0.326,0.317,0.171,0.105,north,4.4,No
2017/07/31,01:50,0.348,0.211,0.348,0.323,0.316,0.169,0.104,north,4.3,No
2017/07/31,02:00,0.347,0.212,0.346,0.328,0.313,0.171,0.104,north,4.9,No
2017/07/31,02:10,0.344,0.212,0.351,0.326,0.319,0.171,0.105,north,4.6,No
2017/07/31,02:20,0.348,0.209,0.347,0.323,0.314,0.170,0.103,north,4.6,No
2017/07/31,02:30,0.347,0.211,0.348,0.327,0.313,0.172,0.106,north,4.6,No
2017/07/31,02:40,0.344,0.211,0.351,0.326,0.318,0.171,0.105,north,4.0,No
2017/07/31,02:50,0.348,0.210,0.347,0.324,0.316,0.170,0.104,north,4.5,No
2017/07/31,03:00,0.348,0.211,0.348,0.327,0.314,0.170,0.105,north,4.9,No
2017/07/31,03:10,0.344,0.211,0.351,0.325,0.318,0.171,0.105,north,4.4,No
2017/07/31,03:20,0.347,0.210,0.348,0.323,0.317,0.170,0.105,north,3.6,No
2017/07/31,03:30,0.348,0.211,0.347,0.328,0.314,0.171,0.105,north,2.9,No
2017/07/31,03:40,0.346,0.210,0.352,0.327,0.320,0.170,0.105,north,2.2,No
2017/07/31,03:50,0.346,0.211,0.347,0.323,0.316,0.171,0.104,north,2.2,No
2017/07/31,04:00,0.349,0.212,0.348,0.326,0.314,0.171,0.105,north,2.6,No
2017/07/31,04:10,0.345,0.210,0.351,0.328,0.318,0.170,0.105,north,2.7,No
2017/07/31,04:20,0.347,0.211,0.349,0.324,0.316,0.169,0.103,north,2.3,No
2017/07/31,04:30,0.348,0.212,0.348,0.326,0.314,0.171,0.105,north,3.4,No
2017/07/31,04:40,0.347,0.211,0.351,0.328,0.318,0.171,0.106,north,2.4,No
2017/07/31,04:50,0.346,0.211,0.348,0.325,0.317,0.172,0.104,north,3.1,No
2017/07/31,05:00,0.350,0.213,0.347,0.325,0.316,0.170,0.106,north,2.9,No
2017/07/31,05:10,0.347,0.210,0.351,0.329,0.318,0.171,0.105,north,2.3,No
2017/07/31,05:20,0.347,0.211,0.348,0.326,0.317,0.171,0.105,northeast,1.0,No
2017/07/31,05:30,0.350,0.212,0.347,0.325,0.314,0.169,0.105,north,0.9,No
2017/07/31,05:40,0.347,0.212,0.351,0.327,0.318,0.171,0.104,north,1.4,No
2017/07/31,05:50,0.345,0.211,0.349,0.326,0.319,0.171,0.105,north-northeast,1.8,No
2017/07/31,06:00,0.351,0.213,0.347,0.323,0.314,0.170,0.104,north,1.5,No
2017/07/31,06:10,0.349,0.210,0.351,0.329,0.315,0.172,0.106,north-northwest,1.2,No
2017/07/31,06:20,0.345,0.212,0.350,0.326,0.318,0.172,0.106,north,1.4,No
2017/07/31,06:30,0.349,0.213,0.346,0.324,0.316,0.171,0.105,north,0.7,No
2017/07/31,06:40,0.350,0.212,0.350,0.326,0.314,0.169,0.105,east-northeast,0.7,No
2017/07/31,06:50,0.346,0.210,0.352,0.328,0.319,0.172,0.105,north-northeast,1.1,Yes
2017/07/31,07:00,0.346,0.212,0.348,0.325,0.317,0.172,0.106,north,0.9,No
2017/07/31,07:10,0.350,0.214,0.348,0.324,0.316,0.172,0.105,north,0.5,No
2017/07/31,07:20,0.347,0.211,0.352,0.328,0.315,0.171,0.106,north-northwest,0.9,No
2017/07/31,07:30,0.344,0.210,0.350,0.328,0.319,0.172,0.105,north-northeast,1.4,No
2017/07/31,07:40,0.346,0.212,0.346,0.325,0.318,0.171,0.104,north,1.2,No
2017/07/31,07:50,0.350,0.212,0.347,0.324,0.314,0.171,0.105,north-northeast,1.6,No
2017/07/31,08:00,0.346,0.212,0.351,0.327,0.312,0.171,0.106,north,1.0,No
2017/07/31,08:10,0.345,0.209,0.348,0.326,0.315,0.171,0.106,north-northeast,1.9,No
2017/07/31,08:20,0.347,0.211,0.347,0.324,0.320,0.172,0.105,north-northeast,1.5,No
2017/07/31,08:30,0.349,0.213,0.348,0.323,0.317,0.172,0.104,north-northeast,1.0,No
2017/07/31,08:40,0.348,0.213,0.352,0.323,0.316,0.171,0.104,northeast,1.4,No
2017/07/31,08:50,0.346,0.211,0.351,0.327,0.314,0.171,0.104,north-northeast,1.3,No
2017/07/31,09:00,0.346,0.212,0.349,0.329,0.315,0.171,0.104,east-southeast,0.7,No
2017/07/31,09:10,0.344,0.212,0.347,0.327,0.315,0.172,0.104,east-northeast,1.4,No
2017/07/31,09:20,0.344,0.211,0.347,0.327,0.315,0.171,0.104,northeast,2.0,No
2017/07/31,09:30,0.345,0.210,0.346,0.327,0.317,0.171,0.104,northeast,2.2,No
2017/07/31,09:40,0.344,0.210,0.351,0.327,0.316,0.172,0.103,east,2.2,No
2017/07/31,09:50,0.345,0.211,0.350,0.326,0.315,0.172,0.104,east,1.6,No
2017/07/31,10:00,0.344,0.212,0.349,0.327,0.317,0.171,0.104,east,1.4,No
2017/07/31,10:10,0.346,0.212,0.347,0.327,0.318,0.172,0.103,east,1.8,No
2017/07/31,10:20,0.344,0.212,0.347,0.327,0.317,0.173,0.103,east-northeast,2.2,No
2017/07/31,10:30,0.346,0.211,0.347,0.328,0.318,0.172,0.104,east,2.0,No
2017/07/31,10:40,0.349,0.211,0.349,0.328,0.318,0.172,0.104,east,1.9,No
2017/07/31,10:50,0.351,0.211,0.347,0.327,0.317,0.172,0.103,east-southeast,1.3,No
2017/07/31,11:00,0.350,0.211,0.347,0.328,0.317,0.172,0.103,southeast,1.3,No
2017/07/31,11:10,0.350,0.212,0.348,0.326,0.316,0.171,0.102,southeast,1.8,No
2017/07/31,11:20,0.348,0.212,0.348,0.328,0.316,0.172,0.103,south-southeast,1.7,No
2017/07/31,11:30,0.347,0.212,0.348,0.326,0.318,0.173,0.103,south-southeast,2.0,No
2017/07/31,11:40,0.347,0.213,0.350,0.328,0.318,0.172,0.104,south-southeast,2.7,No
2017/07/31,11:50,0.349,0.212,0.349,0.327,0.318,0.173,0.104,south-southeast,2.4,No
2017/07/31,12:00,0.348,0.212,0.351,0.326,0.316,0.172,0.104,south-southeast,2.7,No
2017/07/31,12:10,0.346,0.211,0.347,0.327,0.318,0.173,0.102,south-southeast,3.0,No
2017/07/31,12:20,0.346,0.212,0.348,0.325,0.318,0.173,0.104,south-southeast,3.4,No
2017/07/31,12:30,0.346,0.212,0.348,0.325,0.316,0.174,0.104,southeast,3.1,No
2017/07/31,12:40,0.347,0.211,0.348,0.326,0.318,0.174,0.104,south-southeast,3.3,No
2017/07/31,12:50,0.348,0.211,0.349,0.325,0.318,0.172,0.104,south-southeast,2.4,No
2017/07/31,13:00,0.348,0.213,0.351,0.326,0.319,0.172,0.105,southeast,3.0,No
2017/07/31,13:10,0.348,0.212,0.349,0.326,0.318,0.172,0.104,south-southeast,3.2,No
2017/07/31,13:20,0.349,0.212,0.350,0.328,0.319,0.172,0.103,south-southeast,3.6,No
2017/07/31,13:30,0.348,0.212,0.351,0.327,0.317,0.172,0.104,south,4.1,No
2017/07/31,13:40,0.350,0.212,0.351,0.327,0.317,0.172,0.103,south,3.9,No
2017/07/31,13:50,0.349,0.213,0.350,0.329,0.319,0.174,0.104,south,3.9,No
2017/07/31,14:00,0.349,0.213,0.353,0.328,0.320,0.173,0.104,south,4.7,No
2017/07/31,14:10,0.347,0.214,0.350,0.329,0.320,0.172,0.102,south,4.4,No
2017/07/31,14:20,0.348,0.213,0.353,0.330,0.319,0.174,0.103,south,4.5,No
2017/07/31,14:30,0.350,0.213,0.352,0.329,0.319,0.174,0.103,south,4.4,No
2017/07/31,14:40,0.349,0.212,0.351,0.329,0.321,0.173,0.104,south,5.0,No
2017/07/31,14:50,0.349,0.213,0.351,0.329,0.318,0.172,0.104,south,4.4,No
2017/07/31,15:00,0.350,0.212,0.351,0.327,0.319,0.173,0.103,south,4.7,No
2017/07/31,15:10,0.348,0.212,0.351,0.327,0.320,0.173,0.103,south,5.6,No
2017/07/31,15:20,0.348,0.212,0.350,0.328,0.320,0.172,0.103,south,6.6,No
2017/07/31,15:30,0.353,0.213,0.351,0.326,0.318,0.172,0.104,south,5.9,No
2017/07/31,15:40,0.353,0.213,0.351,0.329,0.319,0.174,0.103,south,6.1,No
2017/07/31,15:50,0.352,0.211,0.352,0.332,0.319,0.172,0.103,south,5.6,No
2017/07/31,16:00,0.350,0.212,0.350,0.331,0.319,0.174,0.104,south,4.8,No
2017/07/31,16:10,0.349,0.212,0.349,0.328,0.320,0.173,0.105,south,3.6,No
2017/07/31,16:20,0.347,0.212,0.351,0.327,0.319,0.174,0.105,south,4.1,No
2017/07/31,16:30,0.351,0.214,0.355,0.329,0.319,0.173,0.105,south,4.1,No
2017/07/31,16:40,0.353,0.213,0.355,0.332,0.319,0.172,0.103,south,3.7,No
2017/07/31,16:50,0.350,0.214,0.353,0.330,0.319,0.172,0.105,south,3.9,No
2017/07/31,17:00,0.350,0.212,0.351,0.328,0.320,0.173,0.105,south,3.6,No
2017/07/31,17:10,0.349,0.214,0.352,0.331,0.318,0.174,0.105,south-southwest,2.2,No
2017/07/31,17:20,0.349,0.215,0.356,0.333,0.318,0.175,0.104,south,1.9,No
2017/07/31,17:30,0.353,0.212,0.353,0.330,0.319,0.173,0.105,south,2.5,No
2017/07/31,17:40,0.352,0.212,0.351,0.328,0.319,0.172,0.106,south-southwest,1.9,No
2017/07/31,17:50,0.350,0.214,0.351,0.328,0.317,0.174,0.105,south-southwest,1.1,No
2017/07/31,18:00,0.348,0.213,0.355,0.331,0.317,0.174,0.104,northwest,1.3,No
2017/07/31,18:10,0.352,0.214,0.355,0.330,0.321,0.174,0.106,north,2.6,No
2017/07/31,18:20,0.352,0.212,0.352,0.328,0.323,0.173,0.106,north,3.6,No
2017/07/31,18:30,0.350,0.214,0.351,0.327,0.321,0.172,0.104,north-northwest,2.2,No
2017/07/31,18:40,0.347,0.215,0.355,0.333,0.318,0.173,0.104,north-northwest,1.8,No
2017/07/31,18:50,0.354,0.214,0.356,0.331,0.318,0.175,0.105,north-northwest,0.9,No
2017/07/31,19:00,0.352,0.213,0.352,0.329,0.323,0.172,0.106,west-southwest,1.3,No
2017/07/31,19:10,0.350,0.215,0.350,0.330,0.321,0.173,0.105,north,0.6,No
2017/07/31,19:20,0.350,0.216,0.355,0.332,0.318,0.174,0.105,west-northwest,1.1,No
2017/07/31,19:30,0.353,0.213,0.353,0.330,0.319,0.174,0.105,west-northwest,0.5,No
2017/07/31,19:40,0.352,0.215,0.350,0.327,0.322,0.173,0.105,north-northwest,1.3,No
2017/07/31,19:50,0.349,0.215,0.353,0.331,0.322,0.173,0.104,west-northwest,0.9,No
2017/07/31,20:00,0.351,0.213,0.355,0.333,0.318,0.174,0.105,west,1.3,No
2017/07/31,20:10,0.354,0.215,0.351,0.330,0.321,0.173,0.105,west-southwest,1.4,No
2017/07/31,20:20,0.351,0.215,0.352,0.330,0.323,0.174,0.105,southwest,1.8,No
2017/07/31,20:30,0.349,0.214,0.357,0.333,0.318,0.174,0.105,south-southwest,1.5,No
2017/07/31,20:40,0.354,0.214,0.352,0.331,0.317,0.173,0.106,south-southwest,1.3,No
2017/07/31,20:50,0.352,0.216,0.350,0.329,0.323,0.173,0.105,south-southwest,2.6,No
2017/07/31,21:00,0.349,0.214,0.355,0.332,0.320,0.174,0.105,south-southwest,3.3,No
2017/07/31,21:10,0.354,0.213,0.354,0.332,0.319,0.173,0.106,south-southwest,3.3,No
2017/07/31,21:20,0.355,0.215,0.351,0.329,0.321,0.173,0.106,south-southwest,2.6,No
2017/07/31,21:30,0.349,0.214,0.357,0.331,0.323,0.175,0.105,south,2.0,No
2017/07/31,21:40,0.352,0.213,0.356,0.334,0.321,0.173,0.106,south-southwest,2.2,No
2017/07/31,21:50,0.354,0.215,0.353,0.331,0.318,0.173,0.106,south-southwest,2.2,No
2017/07/31,22:00,0.351,0.215,0.354,0.329,0.323,0.174,0.105,south-southwest,2.0,No
2017/07/31,22:10,0.350,0.212,0.357,0.333,0.323,0.174,0.106,south-southwest,2.0,No
2017/07/31,22:20,0.354,0.217,0.355,0.332,0.320,0.173,0.106,southwest,1.6,No
2017/07/31,22:30,0.353,0.215,0.352,0.329,0.322,0.173,0.107,west,2.3,No
2017/07/31,22:40,0.349,0.215,0.357,0.334,0.324,0.175,0.106,west,1.6,No
2017/07/31,22:50,0.353,0.216,0.356,0.333,0.322,0.174,0.107,south-southwest,1.6,No
2017/07/31,23:00,0.356,0.216,0.352,0.330,0.319,0.174,0.107,southwest,1.4,No
2017/07/31,23:10,0.351,0.214,0.356,0.331,0.323,0.175,0.106,southwest,1.2,No
2017/07/31,23:20,0.352,0.217,0.356,0.334,0.321,0.175,0.107,west-southwest,1.9,No
2017/07/31,23:30,0.355,0.216,0.353,0.332,0.319,0.173,0.107,west-southwest,1.4,No
2017/07/31,23:40,0.353,0.214,0.352,0.329,0.319,0.174,0.105,-,CALM,No
2017/07/31,23:50,0.350,0.216,0.357,0.335,0.323,0.174,0.105,north,1.3,No
